This demonstration page uses our WeatherBlox Daily Observations layout. Learn more.

Left ArrowRight Arrow

47.50024, -111.30081

Hourly Observations for April 1, 2022

Temp ( °F °C ) Dew Point ( °F °C ) Humidity (%) Winds ( mph kmh ) Pressure ( in mb ) Visibility ( mi km ) Precip ( " mm )
12:53 am 00:53 Partly Cloudy 29 -1.7 19 -7.2 66 66 SW 12 19 29.98 1015 10 16 0.00 0.00
1:53 am 01:53 Cloudy 30 -1.1 19 -7.2 64 64 SW 12 19 29.98 1015 10 16 0.00 0.00
2:53 am 02:53 Cloudy 29 -1.7 20 -6.7 69 69 SW 10 17 29.98 1015 10 16 0.00 0.00
3:53 am 03:53 Clear 28 -2.2 21 -6.1 75 75 SW 12 19 29.99 1016 10 16 0.00 0.00
4:53 am 04:53 Clear 27 -2.8 20 -6.7 75 75 SW 12 19 30.01 1016 10 16 0.00 0.00
5:53 am 05:53 Clear 28 -2.2 20 -6.7 72 72 SW 12 19 30.02 1017 10 16 0.00 0.00
6:53 am 06:53 Partly Cloudy 27 -2.8 20 -6.7 75 75 SW 10 17 30.02 1017 10 16 0.00 0.00
7:53 am 07:53 Cloudy 31 -0.6 22 -5.6 69 69 SW 8 13 30.04 1017 10 16 0.00 0.00
8:53 am 08:53 Cloudy 34 1.1 23 -5 64 64 WSW 12 19 30.05 1018 10 16 0.00 0.00
9:53 am 09:53 Cloudy 39 3.9 24 -4.4 55 55 SW 10 17 30.05 1018 10 16 0.00 0.00
10:53 am 10:53 Cloudy 42 5.6 17 -8.3 36 36 WSW 13 20 30.05 1018 10 16 0.00 0.00
11:53 am 11:53 Cloudy 43 6.1 16 -8.9 34 34 WNW 14 22 30.05 1018 10 16 0.00 0.00
12:53 pm 12:53 Cloudy 43 6.1 17 -8.3 35 35 NW 14 22 30.05 1018 10 16 0.00 0.00
1:53 pm 13:53 Cloudy 45 7.2 16 -8.9 31 31 WNW 13 20 30.03 1017 10 16 0.00 0.00
2:53 pm 14:53 Mostly Cloudy 47 8.3 16 -8.9 29 29 WNW 14 22 30.02 1017 10 16 0.00 0.00
3:53 pm 15:53 Mostly Cloudy 48 8.9 16 -8.9 28 28 WNW 10 17 30.01 1016 10 16 0.00 0.00
4:53 pm 16:53 Cloudy 47 8.3 16 -8.9 29 29 WSW 15 24 30.02 1017 10 16 0.00 0.00
5:53 pm 17:53 Partly Cloudy 46 7.8 17 -8.3 31 31 W 12 19 30.02 1017 10 16 0.00 0.00
6:53 pm 18:53 Partly Cloudy 44 6.7 20 -6.7 38 38 WSW 12 19 30.03 1017 10 16 0.00 0.00
7:53 pm 19:53 Sunny 38 3.3 20 -6.7 48 48 SW 7 11 30.03 1017 10 16 0.00 0.00
8:53 pm 20:53 Mostly Clear 31 -0.6 20 -6.7 64 64 WSW 8 13 30.05 1018 10 16 0.00 0.00
9:53 pm 21:53 Clear 30 -1.1 20 -6.7 66 66 SW 8 13 30.03 1017 10 16 0.00 0.00
10:53 pm 22:53 Clear 29 -1.7 19 -7.2 66 66 SSW 7 11 30.02 1017 10 16 0.00 0.00
11:53 pm 23:53 Clear 29 -1.7 19 -7.2 66 66 SSW 7 11 30.02 1017 10 16 0.00 0.00

Powered by AerisWeather